Burlington, VT

3:26 PM EST on November 20, 2019 (GMT -0500)
Burlington International

Weather History for KBTV - September, 2019

Change the Weather History Date:

Friday, September 27, 2019

  Actual Average Record
Temperature  
Mean Temperature 59 °F 56 °F  
Max Temperature 70 °F 65 °F 90 °F (2017)
Min Temperature 47 °F 46 °F 27 °F (1947)
Degree Days  
Heating Degree Days 6 10  
Month to date heating degree days 86 143  
Since 1 July heating degree days 90 185  
Cooling Degree Days 0 0  
Month to date cooling degree days 22 41  
Year to date cooling degree days 602 489  
Growing Degree Days 8 (Base 50)    
Moisture  
Dew Point 47 °F    
Average Humidity 68    
Maximum Humidity 93    
Minimum Humidity 42    
Precipitation  
Precipitation 0.00 in 0.13 in 2.43 in (1942)
Month to date precipitation 3.69 3.26  
Year to date precipitation 29.98 27.33  
Snow  
Snow 0.00 in 0.00 in 0.00 in (2002)
Month to date snowfall 0.0 0.0  
Since 1 July snowfall 0.0 0.0  
Since 1 September snowfall 0.0 0.0  
Snow Depth 0.00 in    
Sea Level Pressure  
Sea Level Pressure 30.03 in    
Wind  
Wind Speed 4 mph (South)    
Max Wind Speed 13 mph    
Max Gust Speed 15 mph    
Visibility 10 miles    
Events      
T = Trace of Precipitation, MM = Missing Value Source: NWS Daily Summary

Daily Weather History Graph

Daily Weather History Graph

Search for Another Location

Airport or City:

Astronomy

Sep. 27, 2019 Rise Set
Actual Time 6:45 AM EDT 6:41 PM EDT
Civil Twilight 6:16 AM EDT 7:10 PM EDT
Nautical Twilight 5:42 AM EDT 7:43 PM EDT
Astronomical Twilight 5:07 AM EDT 8:18 PM EDT
Moon 4:56 AM EDT (9/27) 6:35 PM EDT (9/27)
Length of Visible Light 12h 53m
Length of Day
11h 55m
Waning Crescent, 2% of the Moon is Illuminated
Sep 27
Waning Crescent
Sep 28
New
Oct 5
First Quarter
Oct 13
Full
Oct 21
Last Quarter

Hourly Weather History & Observations

Time (EDT) Temp. Dew Point Humidity Pressure Visibility Wind Dir Wind Speed Gust Speed Precip Events Conditions
12:54 AM 52.0 °F 46.9 °F 83% 29.92 in 10.0 mi Calm Calm - N/A   Clear
1:54 AM 50.0 °F 48.0 °F 93% 29.93 in 10.0 mi SE 3.5 mph - N/A   Clear
2:54 AM 50.0 °F 46.9 °F 89% 29.95 in 10.0 mi Calm Calm - N/A   Clear
3:54 AM 48.9 °F 46.0 °F 90% 29.97 in 10.0 mi East 4.6 mph - N/A   Mostly Cloudy
4:54 AM 48.9 °F 46.0 °F 90% 29.99 in 10.0 mi Calm Calm - N/A   Clear
5:54 AM 48.0 °F 45.0 °F 89% 30.02 in 10.0 mi SE 3.5 mph - N/A   Clear
6:54 AM 48.0 °F 45.0 °F 89% 30.05 in 10.0 mi Calm Calm - N/A   Partly Cloudy
7:54 AM 51.1 °F 48.9 °F 92% 30.08 in 10.0 mi Calm Calm - N/A   Scattered Clouds
8:54 AM 55.9 °F 48.9 °F 77% 30.09 in 10.0 mi SSW 9.2 mph - N/A   Partly Cloudy
9:54 AM 59.0 °F 50.0 °F 72% 30.11 in 10.0 mi South 8.1 mph - N/A   Partly Cloudy
10:54 AM 61.0 °F 48.9 °F 64% 30.11 in 10.0 mi South 4.6 mph - N/A   Partly Cloudy
11:54 AM 64.9 °F 46.9 °F 52% 30.11 in 10.0 mi Variable 5.8 mph - N/A   Partly Cloudy
12:54 PM 66.9 °F 43.0 °F 42% 30.09 in 10.0 mi Variable 3.5 mph - N/A   Partly Cloudy
1:54 PM 68.0 °F 45.0 °F 43% 30.07 in 10.0 mi South 6.9 mph - N/A   Partly Cloudy
2:54 PM 68.0 °F 46.0 °F 45% 30.05 in 10.0 mi South 6.9 mph - N/A   Partly Cloudy
3:54 PM 69.1 °F 45.0 °F 42% 30.04 in 10.0 mi SW 10.4 mph - N/A   Partly Cloudy
4:54 PM 69.1 °F 46.0 °F 44% 30.04 in 10.0 mi South 10.4 mph - N/A   Partly Cloudy
5:54 PM 68.0 °F 48.0 °F 49% 30.03 in 10.0 mi South 8.1 mph - N/A   Partly Cloudy
6:54 PM 64.0 °F 48.9 °F 58% 30.01 in 10.0 mi South 10.4 mph - N/A   Partly Cloudy
7:54 PM 63.0 °F 48.0 °F 58% 30.01 in 10.0 mi South 9.2 mph - N/A   Clear
8:54 PM 63.0 °F 48.0 °F 58% 30.02 in 10.0 mi South 9.2 mph - N/A   Clear
9:54 PM 61.0 °F 48.0 °F 62% 30.02 in 10.0 mi South 9.2 mph - N/A   Clear
10:54 PM 63.0 °F 48.0 °F 58% 30.03 in 10.0 mi South 11.5 mph - N/A   Partly Cloudy
11:54 PM 63.0 °F 48.9 °F 60% 30.01 in 10.0 mi South 9.2 mph - N/A   Overcast